Nome, AK

5:28 PM AKDT on April 24, 2018 (GMT -0800)
Nome

Weather History for PAOM - August, 2013

Change the Weather History Date:

Saturday, August 17, 2013

  Actual Average Record
Temperature  
Mean Temperature 55 °F 50 °F  
Max Temperature 67 °F 56 °F 68 °F (1940)
Min Temperature 43 °F 44 °F 25 °F (1914)
Degree Days  
Heating Degree Days 10 15  
Month to date heating degree days 149 243  
Since 1 June heating degree days 1032 1158  
Since 1 July heating degree days 556 641  
Cooling Degree Days 0 0  
Month to date cooling degree days 0 0  
Year to date cooling degree days 7 3  
Since 1 June cooling degree days 7 3  
Growing Degree Days 4 (Base 50)    
Moisture  
Dew Point 45 °F    
Average Humidity 0    
Maximum Humidity 0    
Minimum Humidity 0    
Precipitation  
Precipitation 0.00 in 0.11 in 1.06 in (1924)
Month to date precipitation 3.03 1.80  
Year to date precipitation 11.93 9.03  
Snow  
Snow 0.00 in 0.00 in 0.00 in ()
Month to date snowfall 0.0 0.0  
Since 1 June snowfall 0.1 0.3  
Since 1 July snowfall 0.0 0.0  
Snow Depth 0.00 in    
Sea Level Pressure  
Sea Level Pressure 29.73 in    
Wind  
Wind Speed 7 mph (NW)    
Max Wind Speed 17 mph    
Max Gust Speed 24 mph    
Visibility 10 miles    
Events      
T = Trace of Precipitation, MM = Missing Value Source: NWS Daily Summary

Daily Weather History Graph

Daily Weather History Graph

Search for Another Location

Airport or City:

Astronomy

Aug. 17, 2013 Rise Set
Actual Time 6:58 AM AKDT 11:10 PM AKDT
Civil Twilight 5:53 AM AKDT 12:14 AM AKDT
Nautical Twilight 3:36 AM AKDT 2:18 AM AKDT
Astronomical Twilight Sun does not set Sun does not set
Moon 9:14 PM AKDT (8/17) 2:24 AM AKDT (8/17)
Length of Visible Light 18h 20m
Length of Day
16h 12m
Waxing Gibbous, 85% of the Moon is Illuminated
Aug 17
Waxing Gibbous
Aug 20
Full
Aug 28
Last Quarter
Sep 5
New
Sep 12
First Quarter

Hourly Weather History & Observations

Time (AKDT) Temp. Windchill Dew Point Humidity Pressure Visibility Wind Dir Wind Speed Gust Speed Precip Events Conditions
12:53 AM 50.0 °F - 45.0 °F 83% 29.70 in 10.0 mi North 4.6 mph - N/A   Scattered Clouds
1:53 AM 50.0 °F - 44.1 °F 80% 29.72 in 10.0 mi North 9.2 mph - N/A   Scattered Clouds
2:53 AM 46.9 °F - 43.0 °F 86% 29.72 in 10.0 mi North 5.8 mph - N/A   Clear
3:53 AM 45.0 °F 42.6 °F 42.1 °F 90% 29.72 in 10.0 mi North 4.6 mph - N/A   Partly Cloudy
4:53 AM 43.0 °F 38.8 °F 41.0 °F 93% 29.71 in 10.0 mi North 6.9 mph - N/A   Clear
5:53 AM 44.1 °F 41.5 °F 41.0 °F 89% 29.71 in 10.0 mi North 4.6 mph - N/A   Clear
6:19 AM 44.6 °F 43.1 °F 41.0 °F 87% 29.71 in 10.0 mi North 3.5 mph - N/A   Mostly Cloudy
6:53 AM 46.0 °F 43.9 °F 43.0 °F 89% 29.72 in 10.0 mi North 4.6 mph - N/A   Mostly Cloudy
7:53 AM 48.0 °F - 43.0 °F 83% 29.73 in 10.0 mi North 6.9 mph - N/A   Mostly Cloudy
8:53 AM 48.9 °F - 43.0 °F 80% 29.74 in 10.0 mi NNW 8.1 mph - N/A   Mostly Cloudy
9:53 AM 50.0 °F - 44.1 °F 80% 29.74 in 10.0 mi North 5.8 mph - N/A   Mostly Cloudy
10:53 AM 54.0 °F - 44.1 °F 69% 29.75 in 10.0 mi North 4.6 mph - N/A   Mostly Cloudy
11:53 AM 55.0 °F - 45.0 °F 69% 29.75 in 10.0 mi Variable 3.5 mph - N/A   Mostly Cloudy
12:46 PM 55.4 °F - 44.6 °F 67% 29.75 in 10.0 mi Calm Calm - N/A   Scattered Clouds
12:53 PM 55.9 °F - 45.0 °F 67% 29.75 in 10.0 mi South 4.6 mph - N/A   Scattered Clouds
1:53 PM 55.9 °F - 46.0 °F 69% 29.74 in 10.0 mi SW 9.2 mph - N/A   Scattered Clouds
2:53 PM 57.0 °F - 46.9 °F 69% 29.75 in 10.0 mi SW 10.4 mph - N/A   Scattered Clouds
3:53 PM 57.9 °F - 46.9 °F 67% 29.75 in 10.0 mi SW 11.5 mph - N/A   Scattered Clouds
4:53 PM 60.1 °F - 46.9 °F 62% 29.73 in 10.0 mi SW 10.4 mph - N/A   Scattered Clouds
5:53 PM 63.0 °F - 48.0 °F 58% 29.73 in 10.0 mi WSW 11.5 mph - N/A   Partly Cloudy
6:53 PM 64.9 °F - 44.1 °F 47% 29.72 in 10.0 mi NW 16.1 mph 23.0 mph N/A   Scattered Clouds
7:53 PM 64.0 °F - 45.0 °F 50% 29.71 in 10.0 mi WNW 11.5 mph - N/A   Scattered Clouds
8:53 PM 62.1 °F - 46.0 °F 56% 29.71 in 10.0 mi West 11.5 mph - N/A   Scattered Clouds
9:53 PM 57.9 °F - 48.0 °F 70% 29.70 in 10.0 mi WNW 9.2 mph - N/A   Scattered Clouds
10:53 PM 54.0 °F - 46.9 °F 77% 29.70 in 10.0 mi NNW 4.6 mph - N/A   Scattered Clouds
11:53 PM 51.1 °F - 46.9 °F 86% 29.70 in 10.0 mi NW 3.5 mph - N/A   Scattered Clouds